sat.trackr.live / text

‹ back to catalog

ONEWEB-0553

NORAD 56055 · 2023-043K

PAYLOAD ACTIVE UNKNOWN

§ Identity

Operator
Country
UK
Launch date
2023-03-26
Launch site
SRILR
Launch vehicle
Mass (kg)
RCS (m²)

Purposes: comms

External: N2YO · Heavens-Above · Gunter

§ Orbital elements

Epoch: 2026-09-20T04:16:30.291168Z

Period
109.37 min
Inclination
87.9156°
Eccentricity
0.0001944
Mean motion
13.16595940 rev/d
Perigee alt
1,196.3 km
Apogee alt
1,199.2 km
Semi-major
7,575.9 km
B*
-1.5967e-5
RAAN
209.9154°
Arg perigee
90.4962°
Mean anomaly
269.6391°
Rev number
17,147

§ Raw data

ONEWEB-05531 56055U 23043K   26263.17812837  .00000007  00000+0 -15967-4 0  99982 56055  87.9156 209.9154 0001944  90.4962 269.6391 13.16595940171476

JSON: /api/v1/satellites/56055 · /tle

For live sub-satellite position, see the globe view (requires WebGL).

§ Visibility from observer

Set your observer location to see the next 7 days of passes ≥ 10°. The values pass through the URL so the page stays shareable.

No JS? Fill the form by hand. The geolocation button needs JavaScript.